Back to catalog

STARLINK-3343

AliveCommunicationsVLEO
NORAD 50822·PAYLOAD·🇺🇸 United States

Launched Jan 6, 2022 from Cape Canaveral Space Force Station

Loading…

Next Passes (next 24 hours)

TLE

FreshSource: CelesTrak SupGP

Epoch: Sep 14, 2026, 12:44 UTC

1 50822C 22001V   26257.53104167 -.00031839  00000+0 -10240-2 0  2572
2 50822  53.1600  31.5617 0001092  87.9009 336.2920 15.31713619    15

Track STARLINK-3343 in real time with AllMySat

Download on the App Store